Regional Weather Roundup
Issued by NWS Upton, NY

Current Version | Previous Version | Graphics & Text | Print | Product List | Glossary Off
Versions: 1 2 3 4 5 6 7 8 9 10 11 12 13 14 15 16 17 18 19 20 21 22 23 24 25 26 27 28

000
ASUS41 KOKX 040604
RWROKX

REGIONAL WEATHER ROUNDUP
NATIONAL WEATHER SERVICE NEW YORK NY
200 AM EDT WED MAY 04 2016

NOTE: "FAIR" INDICATES FEW OR NO CLOUDS BELOW 12,000 FEET WITH NO
SIGNIFICANT WEATHER AND/OR OBSTRUCTIONS TO VISIBILITY.

NYZ071-072-176-178-NJZ106-104-040700-
NEW YORK CITY METRO AREA


CITY           SKY/WX    TMP DP  RH WIND       PRES   REMARKS
CENTRAL PARK   CLOUDY    51  48  89 VRB5      29.83F FOG
LAGUARDIA APRT CLOUDY    51  51 100 E6        29.80F FOG
KENNEDY INTL   DRIZZLE   49  47  93 E10       29.82F FOG
NEWARK/LIBERTY CLOUDY    50  49  95 SE6       29.81F
BRNX BOT. GARD   N/A     50  48  93 E5        29.80F
TETERBORO      DRIZZLE   51  48  89 E6        29.79F FOG
$$

NYZ177-179-078>081-040700-
LONG ISLAND NEW YORK

CITY           SKY/WX    TMP DP  RH WIND       PRES   REMARKS
FARMINGDALE    CLOUDY    49  47  93 E7        29.82F
ISLIP          NOT AVBL
SHIRLEY        CLOUDY    49  47  93 CALM      29.83F
RIVERHEAD        N/A     48  46  93 CALM      29.82F
WESTHAMPTON    CLOUDY    44  44 100 NE5       29.83F
EAST HAMPTON   CLOUDY    47  44  90 E3        29.83S
MONTAUK POINT    N/A     48  45  89 VRB5      29.84F
$$

NYZ052-065-067-040700-
HUDSON VALLEY

CITY           SKY/WX    TMP DP  RH WIND       PRES   REMARKS
WHITE PLAINS     N/A     48  48 100 E6        29.80F FOG
NEWBURGH       CLOUDY    50  50 100 CALM      29.81F FOG
MONTGOMERY     LGT RAIN  50  50 100 CALM      29.80S FOG
POUGHKEEPSIE   CLOUDY    53  50  89 CALM      29.80F
ALBANY         DRZL/FOG  49  47  93 CALM      29.81F VSB 1
$$

NJZ001-105-106-008-010-013-015-019>022-104-040700-
NEW JERSEY

CITY           SKY/WX    TMP DP  RH WIND       PRES   REMARKS
NEWARK/LIBERTY CLOUDY    50  49  95 SE6       29.81F
TETERBORO      DRIZZLE   51  48  89 E6        29.79F FOG
CALDWELL       CLOUDY    51  49  92 S3        29.81S FOG
MORRISTOWN     CLOUDY    50  50 100 CALM      29.81F FOG
SOMERVILLE     CLOUDY    50  49  96 VRB3      29.79F FOG
SUSSEX         CLOUDY    51  49  92 CALM      29.80F
ANDOVER          N/A     51  50  96 CALM      29.80F
TRENTON        CLOUDY    50  47  89 E8        29.79F
MILLVILLE      CLOUDY    50  47  89 NE9       29.78S
ATLANTIC CITY  CLOUDY    49  48  97 NE13      29.78S
WRIGHTSTOWN    CLOUDY    49  48  98 NE7       29.77S FOG
TOMS RIVER     CLOUDY    48  45  87 E5        29.80F
BELMAR         CLOUDY    48  47  96 E10       29.80F
$$

PAZ047>061-062-071-040700-
EASTERN PENNSYLVANIA

CITY           SKY/WX    TMP DP  RH WIND       PRES   REMARKS
PHILADELPHIA   CLOUDY    52  47  83 E8        29.80F
ALLENTOWN      CLOUDY    53  50  89 SE6       29.79F
SCRANTON       CLOUDY    50  49  96 CALM      29.78F FOG
$$

CTZ002-004>006-009-010-012-RIZ004-006-007-MAZ004-011-015-040700-
SOUTHERN NEW ENGLAND
 IN CT

CITY           SKY/WX    TMP DP  RH WIND       PRES   REMARKS
BRADLEY INTL   CLOUDY    49  45  86 CALM      29.83S
HARTFORD       CLOUDY    52  46  80 SE3       29.84S
DANBURY        CLOUDY    48  47  96 E6        29.82F FOG
WTRBRY/OXFORD    N/A     48  45  87 SE3       29.83F VSB 1/4
BRIDGEPORT     CLOUDY    50  47  89 E6        29.83S
MERIDEN        CLOUDY    50  47  89 CALM      29.84S
NEW HAVEN      CLOUDY    49  47  93 CALM      29.83F
CHESTER        CLOUDY    48  46  93 CALM      29.83S
GROTON         CLOUDY    49  48  97 E5        29.83S
WILLIMANTIC    CLOUDY    49  41  74 NE5       29.84S

 IN RI

CITY           SKY/WX    TMP DP  RH WIND       PRES   REMARKS
PROVIDENCE     CLOUDY    47  41  80 NE9       29.85F
BLOCK ISLAND   CLOUDY    47  44  90 NE7       29.84S
WESTERLY       CLOUDY    48  42  80 NE3       29.84S

 IN MA

CITY           SKY/WX    TMP DP  RH WIND       PRES   REMARKS
BOSTON         MOCLDY    45  42  89 NE6       29.86F
WORCESTER      CLOUDY    43  41  93 NE3       29.83F
WESTFIELD      CLOUDY    49  46  90 E3        29.83F
PROVINCETOWN   CLOUDY   N/A N/A N/A NE7       29.86F
NANTUCKET      CLOUDY    47  44  90 NE8       29.82F
$$

ANZ330-335-338-340-345-350-353-355-040700-
COASTAL MARINE OBSERVATIONS


STATION/POSITION TIME  SKY/WX   TEMP    WIND        PRES    VSBY  WAVE
                                AIR SEA DIR/SP/G                  HT/PER
                 (UTC)          (F)     (DEG/KT/KT) (MB)    (MI)  (FT/S)
NY HARB ENTRANCE 0450            49 51   80/ 10/ 14 1009.5          3/ 7
20S FIRE ISLAND  0450            48 48   70/ 12/ 16 1009.5          4/ 6
GREAT SOUTH BAY  0500            49 55   80/ 12/ 14   N/A
23 SSW MONTAUK P 0550            47 47   70/ 12/ 12 1009.2          4/ 5
15 E BARNEGAT LI 0522               50                N/A           4/ 6
HUDSON CANYON    0450            48 49              1008.0          5/ 6
KINGS POINT      0500            50 53              1009.7
EXECUTION ROCKS  NOT AVBL
CENTRAL LI SOUND 0500            49      90/  6/ 10   N/A           0
EASTERN LI SOUND 0500            48 47   60/  8/ 10   N/A
ROBBINS REEF     0506            50     120/ 12/ 13 1008.8
$$


>>>>>>>>>>>>>>>>>>>>>>>>>>>> KEY <<<<<<<<<<<<<<<<<<<<<<<<<<<
>                                                          <
>     SKY/WX - SKY CONDITION/PRESENT WEATHER               <
>     TMP    - TEMPERATURE IN FAHRENHEIT                   <
>     DP     - DEWPOINT IN FAHRENHEIT                      <
>     RH     - RELATIVE HUMIDITY IN PERCENT                <
>     WIND   - DIRECTION AND SPEED IN MPH                  <
>     PRES   - MEAN SEA LEVEL PRESSURE IN INCHES OF HG     <
>     WCI    - WIND CHILL INDEX                            <
>     VSB    - VISIBILITY IN MILES                         <
>     HX     - HEAT INDEX                                  <
>     TC     - TEMPERATURE IN CELSIUS                      <
>     VRB    - VARIABLE WIND DIRECTION                     <
>                                                          <
>>>>>>>>>>>>>>>>>>>>>>>>>>>> KEY <<<<<<<<<<<<<<<<<<<<<<<<<<<






USA.gov is the U.S. government's official web portal to all federal, state and local government web resources and services.